Erie, PA

7:49 PM EST on December 05, 2019 (GMT -0500)
Erie International

Weather History for KERI - October, 2019

Change the Weather History Date:

Sunday, October 13, 2019

  Actual Average Record
Temperature  
Mean Temperature 54 °F 54 °F  
Max Temperature 66 °F 62 °F 83 °F (1983)
Min Temperature 42 °F 46 °F 33 °F (1957)
Degree Days  
Heating Degree Days 10 11  
Month to date heating degree days 70 125  
Since 1 July heating degree days 82 249  
Cooling Degree Days 0 0  
Month to date cooling degree days 22 7  
Year to date cooling degree days 847 636  
Growing Degree Days 4 (Base 50)    
Moisture  
Dew Point 32 °F    
Average Humidity 45    
Maximum Humidity 67    
Minimum Humidity 24    
Precipitation  
Precipitation 0.00 in 0.13 in 1.15 in (1999)
Month to date precipitation 0.63 1.86  
Year to date precipitation 30.26 32.30  
Snow  
Snow 0.00 in 0.00 in - ()
Month to date snowfall 0.0 0.0  
Since 1 July snowfall 0.0 0.0  
Since 1 September snowfall 0.0 0.0  
Snow Depth 0.00 in    
Sea Level Pressure  
Sea Level Pressure 29.95 in    
Wind  
Wind Speed 12 mph ()    
Max Wind Speed 23 mph    
Max Gust Speed 31 mph    
Visibility 10.0 miles    
Events      
T = Trace of Precipitation, MM = Missing Value Source: Averaged Metar Reports

Daily Weather History Graph

Daily Weather History Graph

Search for Another Location

Airport or City:

Astronomy

Oct. 13, 2019 Rise Set
Actual Time 7:30 AM EDT 6:42 PM EDT
Civil Twilight 7:02 AM EDT 7:10 PM EDT
Nautical Twilight 6:30 AM EDT 7:42 PM EDT
Astronomical Twilight 5:57 AM EDT 8:15 PM EDT
Moon 7:05 PM EDT (10/13) 7:01 AM EDT (10/13)
Length of Visible Light 12h 08m
Length of Day
11h 11m
Full, 100% of the Moon is Illuminated
Oct 13
Full
Oct 13
Full
Oct 21
Last Quarter
Oct 27
New
Nov 4
First Quarter

Hourly Weather History & Observations

Time (EDT) Temp. Windchill Dew Point Humidity Pressure Visibility Wind Dir Wind Speed Gust Speed Precip Events Conditions
12:51 AM 44.1 °F 38.6 °F 32.0 °F 63% 30.05 in 10.0 mi South 10.4 mph - N/A   Clear
1:51 AM 45.0 °F 39.7 °F 30.9 °F 58% 30.04 in 10.0 mi South 10.4 mph - N/A   Clear
2:51 AM 45.0 °F 39.3 °F 30.9 °F 58% 30.03 in 10.0 mi South 11.5 mph - N/A   Clear
3:51 AM 45.0 °F 39.7 °F 30.9 °F 58% 30.04 in 10.0 mi SSW 10.4 mph - N/A   Clear
4:51 AM 44.1 °F 40.1 °F 30.9 °F 60% 30.04 in 10.0 mi South 6.9 mph - N/A   Clear
5:51 AM 43.0 °F 36.8 °F 30.9 °F 62% 30.04 in 10.0 mi South 11.5 mph - N/A   Clear
6:51 AM 42.1 °F 35.2 °F 32.0 °F 67% 30.04 in 10.0 mi SSE 12.7 mph - N/A   Clear
7:51 AM 42.1 °F 35.7 °F 32.0 °F 67% 30.04 in 10.0 mi South 11.5 mph - N/A   Clear
8:51 AM 45.0 °F 38.2 °F 33.1 °F 63% 30.03 in 10.0 mi South 15.0 mph - N/A   Clear
9:51 AM 51.1 °F - 34.0 °F 52% 30.01 in 10.0 mi South 16.1 mph - N/A   Clear
10:51 AM 55.0 °F - 35.1 °F 47% 30.00 in 10.0 mi South 15.0 mph 21.9 mph N/A   Clear
11:51 AM 59.0 °F - 32.0 °F 36% 29.97 in 10.0 mi South 20.7 mph 27.6 mph 0.00 in   Clear
12:51 PM 62.1 °F - 32.0 °F 32% 29.94 in 10.0 mi South 15.0 mph 25.3 mph N/A   Clear
1:51 PM 64.9 °F - 30.9 °F 28% 29.91 in 10.0 mi South 15.0 mph - N/A   Clear
2:51 PM 66.0 °F - 30.0 °F 26% 29.87 in 10.0 mi South 21.9 mph 31.1 mph N/A   Clear
3:51 PM 66.9 °F - 28.9 °F 24% 29.85 in 10.0 mi South 13.8 mph 23.0 mph N/A   Clear
4:51 PM 66.0 °F - 30.0 °F 26% 29.85 in 10.0 mi South 17.3 mph 25.3 mph N/A   Clear
5:51 PM 64.9 °F - 30.9 °F 28% 29.84 in 10.0 mi South 11.5 mph 21.9 mph N/A   Clear
6:51 PM 61.0 °F - 32.0 °F 34% 29.84 in 10.0 mi South 10.4 mph - N/A   Clear
7:51 PM 59.0 °F - 30.9 °F 35% 29.85 in 10.0 mi South 13.8 mph - N/A   Clear
8:51 PM 57.9 °F - 30.9 °F 36% 29.86 in 10.0 mi South 12.7 mph - N/A   Clear
9:51 PM 57.9 °F - 32.0 °F 37% 29.86 in 10.0 mi South 17.3 mph 25.3 mph N/A   Clear
10:51 PM 59.0 °F - 33.1 °F 38% 29.85 in 10.0 mi South 20.7 mph 28.8 mph N/A   Clear
11:51 PM 59.0 °F - 34.0 °F 39% 29.85 in 10.0 mi SSW 17.3 mph 24.2 mph N/A   Clear